Location: Cz?stochówka
(50.8142°N, 19.0915°E)
Time: 01:33:19
(UTC+00:00)

Cosmos 2366 rocket - Pass Details

Date: 19 April 2026
Orbit: 954 x 996 km, 82.9° (Epoch: 19 May)

Event Time Altitude Azimuth Distance (km) Brightness Sun altitude
Rises 19:29:53 0° 210° (SSW) 3,633 6.9 -15.1°
Reaches altitude 10° 19:32:31 10° 217° (SW) 2,687 6.3 -15.4°
Maximum altitude 19:38:21 44° 288° (WNW) 1,302 5.1 -16.0°
Drops below altitude 10° 19:44:12 10° 0° (N) 2,696 6.9 -16.7°
Sets 19:46:51 0° 7° (N) 3,647 7.6 -17.0°
